Flag for Saudi Arabia Weather past 2 weeks in Jeddah, Saudi Arabia

Now
91 °F

Passing clouds.


Feels Like: 103 °F
Forecast: 88 / 98 °F
Wind: 5 mph from East

Location: Jeddah King Abdul Aziz International Airport

Current Time: Sep 2, 2015 at 2:02:14 AM

Latest Report: Sep 2, 2015 at 12:00 AM


Visibility: N/A

Pressure: 29.71 "Hg

Humidity: 59%

Dew point: 75 °F

Location of JeddahLocation

Historic Weather in Jeddah — Graph

°F

Jeddah temperature yesterday

Maximum temperature yesterday: 100 °F (at 2:00 PM)
Minimum temperature yesterday: 88 °F (at 5:00 AM)
Average temperature yesterday: 93 °F

Past Weeks' High & Low Weather Summary

 TemperatureHumidityPressure
High120 °F (Aug 20, 12:00 PM)84% (Aug 24, 5:00 AM)29.77 "Hg (Aug 24, 5:00 AM)
Low88 °F (Aug 18, 5:00 AM)5% (Aug 20, 12:00 PM)29.50 "Hg (Aug 20, 2:00 PM)
Average94 °F58%29.62 "Hg
* Reported Midnight between Aug 17 and Aug 18 — Midnight between Sep 1 and Sep 2, Jeddah, Weather by CustomWeather, © 2015

Note: Actual official high and low records may vary slightly from our data, if they occured in-between our weather recording intervals... More about our weather records

Advertising

Jeddah weather history for previous 24 hours

 ConditionsComfort  
Time TempWeatherWind HumidityBarometerVisibility
12:00 AM
Wed, Sep 2
91 °FPassing clouds.5 mph59%29.71 "HgN/A
11:00 PM
Tue, Sep 1
90 °FPassing clouds.8 mph63%29.68 "HgN/A
10:00 PM91 °FPassing clouds.9 mph63%29.68 "HgN/A
9:00 PM91 °FClear.9 mph63%29.68 "Hg10 mi
8:00 PM91 °FClear.14 mph63%29.68 "Hg10 mi
7:00 PM93 °FClear.21 mph56%29.65 "Hg10 mi
6:00 PM95 °FSunny.23 mph50%29.65 "Hg10 mi
5:00 PM97 °FSunny.21 mph44%29.62 "Hg10 mi
4:00 PM99 °FSunny.23 mph44%29.62 "Hg10 mi
3:00 PM99 °FSunny.23 mph44%29.65 "Hg10 mi
2:00 PM100 °FSunny.18 mph42%29.65 "Hg10 mi
1:00 PM99 °FSunny.21 mph50%29.68 "Hg10 mi
12:00 PM97 °FSunny.16 mph50%29.68 "Hg10 mi
11:00 AM99 °FSunny.14 mph44%29.68 "Hg10 mi
10:00 AM97 °FSunny.12 mph47%29.71 "Hg10 mi
9:00 AM93 °FPassing clouds.12 mph56%29.71 "HgN/A
8:00 AM91 °FScattered clouds.12 mph59%29.68 "HgN/A
6:00 AM88 °FPassing clouds.14 mph70%29.65 "HgN/A
5:00 AM88 °FPassing clouds.12 mph70%29.62 "HgN/A
4:00 AM90 °FPassing clouds.10 mph67%29.65 "HgN/A
3:00 AM90 °FPassing clouds.12 mph67%29.65 "HgN/A
2:00 AM90 °FClear.7 mph67%29.65 "Hg10 mi
Weather by CustomWeather, © 2015

See weather overviewHow to use our weather pages